Heraklion, Greece

10:17 PM EEST on April 25, 2017 (GMT +0300)
Nikos Kazantzakis

Weather History for LGIR - April, 2014

Change the Weather History Date:

Thursday, April 17, 2014

  Actual Average Record
Temperature  
Mean Temperature 64 °F -  
Max Temperature 72 °F 71 °F 86 °F (1999)
Min Temperature 55 °F 57 °F 48 °F (2008)
Growing Degree Days 14 (Base 50)    
Moisture  
Dew Point 52 °F    
Average Humidity 70    
Maximum Humidity 82    
Minimum Humidity 47    
Precipitation  
Precipitation 0.00 in 0.03 in - ()
Sea Level Pressure  
Sea Level Pressure 29.76 in    
Wind  
Wind Speed 14 mph ()    
Max Wind Speed 25 mph    
Max Gust Speed 32 mph    
Visibility 6.7 miles    
Events      
Averages and records for this station are not official NWS values.
T = Trace of Precipitation, MM = Missing Value Source: Averaged Metar Reports

Daily Weather History Graph

Daily Weather History Graph

Search for Another Location

Airport or City:

Trip Planner

Search our weather history database for the weather conditions in past years. The results will help you decide how hot, cold, wet, or windy it might be!

Date:

Astronomy

Apr. 17, 2014 Rise Set
Actual Time 6:44 AM EEST 7:53 PM EEST
Civil Twilight 6:18 AM EEST 8:19 PM EEST
Nautical Twilight 5:47 AM EEST 8:51 PM EEST
Astronomical Twilight 5:14 AM EEST 9:23 PM EEST
Moon 10:15 PM EEST (4/17) 8:05 AM EEST (4/17)
Length of Visible Light 14h 01m
Length of Day
13h 08m
Waning Gibbous, 95% of the Moon is Illuminated
Apr 17
Waning Gibbous
Apr 22
Last Quarter
Apr 29
New
May 7
First Quarter
May 14
Full

Hourly Weather History & Observations

Time (EEST) Temp. Dew Point Humidity Pressure Visibility Wind Dir Wind Speed Gust Speed Precip Events Conditions
12:00 AM 59 °F 51 °F 66% 29.86 in 9 mi South 12.7 mph - -   Scattered Clouds
12:20 AM 59.0 °F 50.0 °F 72% 29.86 in 6.2 mi South 15.0 mph - N/A   Partly Cloudy
12:50 AM 59.0 °F 51.8 °F 77% 29.83 in 6.2 mi South 6.9 mph - N/A   Partly Cloudy
1:20 AM 59.0 °F 51.8 °F 77% 29.83 in 6.2 mi SSW 10.4 mph - N/A   Partly Cloudy
1:50 AM 59.0 °F 51.8 °F 77% 29.83 in 6.2 mi South 16.1 mph - N/A   Partly Cloudy
2:50 AM 59.0 °F 51.8 °F 77% 29.83 in 6.2 mi South 15.0 mph - N/A   Partly Cloudy
3:00 AM 59 °F 51 °F 68% 29.83 in 9 mi South 15.0 mph - -   Scattered Clouds
3:20 AM 59.0 °F 51.8 °F 77% 29.83 in 6.2 mi South 17.3 mph - N/A   Partly Cloudy
3:50 AM 59.0 °F 51.8 °F 77% 29.80 in 6.2 mi South 18.4 mph - N/A   Partly Cloudy
4:20 AM 59.0 °F 51.8 °F 77% 29.80 in 6.2 mi South 18.4 mph - N/A   Partly Cloudy
4:50 AM 59.0 °F 51.8 °F 77% 29.77 in 6.2 mi South 19.6 mph - N/A   Partly Cloudy
5:20 AM 59.0 °F 51.8 °F 77% 29.77 in 6.2 mi South 16.1 mph - N/A   Partly Cloudy
5:50 AM 59.0 °F 51.8 °F 77% 29.77 in 6.2 mi South 8.1 mph - N/A   Partly Cloudy
6:00 AM 59 °F 52 °F 71% 29.78 in 9 mi South 8.1 mph - -   Scattered Clouds
6:20 AM 59.0 °F 51.8 °F 77% 29.77 in 6.2 mi South 9.2 mph - N/A   Scattered Clouds
6:50 AM 62.6 °F 51.8 °F 68% 29.77 in 6.2 mi South 25.3 mph - N/A   Scattered Clouds
7:20 AM 62.6 °F 51.8 °F 68% 29.77 in 6.2 mi South 19.6 mph - N/A   Scattered Clouds
7:50 AM 62.6 °F 53.6 °F 72% 29.77 in 6.2 mi South 18.4 mph - N/A   Scattered Clouds
8:20 AM 62.6 °F 53.6 °F 72% 29.77 in 6.2 mi South 18.4 mph - N/A   Scattered Clouds
8:50 AM 64.4 °F 53.6 °F 68% 29.77 in 6.2 mi South 20.7 mph - N/A   Scattered Clouds
9:00 AM 65 °F 53 °F 57% 29.78 in 12 mi South 20.7 mph - -   Partly Cloudy
9:20 AM 64.4 °F 53.6 °F 68% 29.77 in 6.2 mi SSE 10.4 mph - N/A   Scattered Clouds
9:50 AM 66.2 °F 51.8 °F 60% 29.77 in 6.2 mi South 15.0 mph - N/A   Mostly Cloudy
10:20 AM 66.2 °F 51.8 °F 60% 29.77 in 6.2 mi South 16.1 mph - N/A   Mostly Cloudy
10:50 AM 66.2 °F 51.8 °F 60% 29.77 in 6.2 mi South 19.6 mph - N/A   Mostly Cloudy
11:20 AM 66.2 °F 51.8 °F 60% 29.77 in 6.2 mi South 19.6 mph - N/A   Mostly Cloudy
11:50 AM 69.8 °F 53.6 °F 56% 29.77 in 6.2 mi SSE 19.6 mph - N/A   Mostly Cloudy
12:00 PM 70 °F 54 °F 47% 29.78 in 12 mi SSE 19.6 mph - -   Mostly Cloudy
12:20 PM 69.8 °F 53.6 °F 56% 29.77 in 6.2 mi SSE 21.9 mph - N/A   Mostly Cloudy
12:50 PM 69.8 °F 53.6 °F 56% 29.74 in 6.2 mi SSE 21.9 mph - N/A   Mostly Cloudy
1:20 PM 69.8 °F 53.6 °F 56% 29.74 in 6.2 mi South 19.6 mph - N/A   Mostly Cloudy
1:50 PM 71.6 °F 53.6 °F 53% 29.71 in 6.2 mi South 20.7 mph 32.2 mph N/A   Mostly Cloudy
2:20 PM 71.6 °F 53.6 °F 53% 29.71 in 6.2 mi South 24.2 mph - N/A   Scattered Clouds
2:50 PM 69.8 °F 55.4 °F 60% 29.71 in 6.2 mi South 18.4 mph - N/A   Mostly Cloudy
3:00 PM 70 °F 56 °F 51% 29.72 in 9 mi South 18.4 mph - -   Mostly Cloudy
3:20 PM 69.8 °F 55.4 °F 60% 29.71 in 6.2 mi NW 17.3 mph 32.2 mph N/A   Mostly Cloudy
3:50 PM 60.8 °F 53.6 °F 77% 29.71 in 6.2 mi NW 24.2 mph - N/A   Mostly Cloudy
4:20 PM 57.2 °F 51.8 °F 82% 29.71 in 6.2 mi NW 16.1 mph - N/A   Mostly Cloudy
4:50 PM 57.2 °F 51.8 °F 82% 29.71 in 6.2 mi NW 12.7 mph - N/A   Mostly Cloudy
5:50 PM 57.2 °F 51.8 °F 82% 29.71 in 6.2 mi NW 15.0 mph - N/A   Mostly Cloudy
6:00 PM 57 °F 51 °F 76% 29.73 in 9 mi NW 15.0 mph - -   Partly Cloudy
6:20 PM 57.2 °F 51.8 °F 82% 29.71 in 6.2 mi NW 12.7 mph - N/A   Mostly Cloudy
6:50 PM 57.2 °F 50.0 °F 77% 29.71 in 6.2 mi NW 12.7 mph - N/A   Mostly Cloudy
7:20 PM 57.2 °F 50.0 °F 77% 29.71 in 6.2 mi NW 10.4 mph - N/A   Mostly Cloudy
7:50 PM 57.2 °F 50.0 °F 77% 29.71 in 6.2 mi NW 10.4 mph - N/A   Mostly Cloudy
8:20 PM 57.2 °F 50.0 °F 77% 29.71 in 6.2 mi NW 10.4 mph - N/A   Mostly Cloudy
8:50 PM 57.2 °F 50.0 °F 77% 29.71 in 6.2 mi NW 10.4 mph - N/A   Mostly Cloudy
9:00 PM 58 °F 50 °F 68% 29.73 in 9 mi NW 10.4 mph - -   Mostly Cloudy
9:20 PM 57.2 °F 50.0 °F 77% 29.71 in 6.2 mi West 4.6 mph - N/A   Mostly Cloudy
9:50 PM 57.2 °F 51.8 °F 82% 29.71 in 6.2 mi Variable 3.5 mph - N/A   Mostly Cloudy
10:20 PM 57.2 °F 51.8 °F 82% 29.71 in 6.2 mi Variable 2.3 mph - N/A   Mostly Cloudy
10:50 PM 57.2 °F 50.0 °F 77% 29.74 in 6.2 mi Variable 3.5 mph - N/A   Mostly Cloudy
11:20 PM 57.2 °F 50.0 °F 77% 29.74 in 6.2 mi SSW 4.6 mph - N/A   Mostly Cloudy
11:50 PM 55.4 °F 48.2 °F 77% 29.74 in 6.2 mi Variable 3.5 mph - N/A   Mostly Cloudy